This is the latest recevied weather packets stored in our database for station/object KA6AKH-13. If no packets are shown the sender has not sent any weather packets the latest 10 day(s).
| Time | Temp. | Humidity | Pressure | Rain* | Wind** | Luminosity | Snow |
|---|---|---|---|---|---|---|---|
| 1788011881 | 23.33° C | 60% | 1023.8 hPa | 0 mm | - | - | - |
| 1788011281 | 23.33° C | 60% | 1023.8 hPa | 0 mm | - | - | - |
| 1788008881 | 22.22° C | 63% | 1023.7 hPa | 0 mm | - | - | - |
| 1788007681 | 22.22° C | 68% | 1023.5 hPa | 0 mm | - | - | - |
| 1788006450 | 21.67° C | 71% | 1023.4 hPa | 0 mm | - | - | - |
| 1788005220 | 21.11° C | 76% | 1023.3 hPa | 0 mm | - | - | - |
| 1788004020 | 21.11° C | 80% | 1023.2 hPa | 0 mm | - | - | - |
| 1788003390 | 21.11° C | 80% | 1023.3 hPa | 0 mm | - | - | - |
| 1788001560 | 20.56° C | 82% | 1023 hPa | 0 mm | - | - | - |
| 1788000960 | 20.56° C | 82% | 1022.8 hPa | 0 mm | - | - | - |
| 1787999100 | 21.11° C | 83% | 1022.3 hPa | 0 mm | - | - | - |
| 1787998501 | 21.11° C | 84% | 1022 hPa | 0 mm | - | - | - |
| 1787997269 | 21.11° C | 84% | 1021.7 hPa | 0 mm | - | - | - |
| 1787996640 | 21.11° C | 84% | 1021.7 hPa | 0 mm | - | - | - |
| 1787996009 | 21.11° C | 84% | 1021.7 hPa | 0 mm | - | - | - |
| 1787995507 | 21.67° C | 84% | 1021.6 hPa | 0 mm | - | - | - |
| 1787995379 | 21.67° C | 84% | 1021.6 hPa | 0 mm | - | - | - |
| 1787994749 | 21.67° C | 85% | 1021.6 hPa | 0 mm | - | - | - |
| 1787993489 | 21.67° C | 86% | 1021.2 hPa | 0 mm | - | - | - |
| 1787992859 | 21.67° C | 86% | 1021.1 hPa | 0 mm | - | - | - |
| 1787991629 | 21.67° C | 87% | 1020.9 hPa | 0 mm | - | - | - |
| 1787991030 | 22.22° C | 87% | 1020.7 hPa | 0 mm | - | - | - |
| 1787990399 | 22.22° C | 87% | 1020.6 hPa | 0 mm | - | - | - |
| 1787989799 | 22.22° C | 87% | 1020.5 hPa | 0 mm | - | - | - |
| 1787989199 | 22.22° C | 86% | 1020.3 hPa | 0 mm | - | - | - |
* Rain latest hour (hover to see other rain measurements)
** Current wind speed in m/s (hover to see current wind gust speed)